Simultaneous Nadir Overpasses (SNOs) Predictions

Prediction of SNOs between METOP-B and TERRA Satellite Orbit:

Table of predicted SNOs for the next 14.0 days since TLE Epoch: 1/16/2016
Index Date (METOP-B) Time (METOP-B) Lat,Lon (METOP-B) SZA (METOP-B ) Date (TERRA) Time (TERRA) Lat,Lon (TERRA) SZA (TERRA ) Distance(km) Time Diff (sec)
1 01/17/2016 20:41:17 -81.35, 97.54 75.51 01/17/2016 20:41:47 -81.34, 97.50 75.50 0.85 30
2 01/17/2016 21:31:57 81.35, -94.89 104.52 01/17/2016 21:31:13 81.35, -94.77 104.51 2.01 44
3 01/20/2016 16:15:36 -81.35, 164.13 76.09 01/20/2016 16:16:01 -81.35, 164.08 76.09 0.83 25
4 01/20/2016 17:06:16 81.35, -28.31 103.93 01/20/2016 17:05:27 81.35, -28.21 103.92 1.67 49
5 01/23/2016 11:49:56 -81.35,-129.31 76.72 01/23/2016 11:50:16 -81.35,-129.43 76.73 1.91 20
6 01/
